Hlavní strana
METAR-TAF:

METAR-TAF

Letiště :

Glasgow Municipal Airport

Glasgow, Kentucky, Spojené státy americké

zeměpisná šířka: 37-01-54N, zeměpisná délka: 085-57-13W, výška: 218 m

Aktuální stav počasí

Zpráva byla vytvořena před 19 minutami, v 21:55 UTC
Severní vítr 14 kt s nárazy do 19 kt
Teplota 11°C
Vlhkost vzduchu 82%
Tlak 1016 hPa
Viditelnost: 16.1 km
Zataženo ve výšce 800 ft

METAR: KGLW 252155Z AUTO 36014G19KT 10SM OVC008 11/08 A3001 RMK AO2 LTG DSNT SE T01050082

Čas: 17:14 (22:14 UTC)


TAF: chybějící

Stav a předpovědi počasí z více než 4 000 letišť (zprávy METAR a TAF).

Červené a žluté tečky na mapě představují dostupné meteorologické stanice.

Když kurzor umístíte na tečku, zobrazí se název stanice.

Pak kliknutím zobrazíte stav a předpověď počasí.

Chcete-li změnit mapu, kliknutím na zelené tlačítko se znaménkem +mapu přiblížíte, kliknutím na zelené tlačítko se znaménkem – mapu oddálíte a kliknutím na zelené šipky přejdete na sousední mapy.


METAR-TAF: